[[{"header":{"parameterUnit":"m.s-1","parameterCategory":1,"la1":30.2991,"la2":30.254,"lo1":-89.0895,"lo2":-89.0444,"dy":0.0017,"dx":0.0017,"nx":28,"ny":28,"refTime":"2024-07-08T09:00:00:Z","depth":0,"parameterNumber":2,"parameterNumberName":"U-component_of_WINDS"},"data":[0,0,0,0,0,0,0,0,0,0,0,0,0,0,0,0,0,0,0,0,0,0,0,0,0,0,0,0,0,0,0,0,0,0,0,0,0,0,0,0,0,0,0,0,0,0,0,0,0,0,0,0,0,0,0,0,0,0,-3.9343,-3.9342,0,-3.9291,-3.929,-3.929,-3.9193,-3.9191,-3.9189,-3.9187,-3.9134,-3.9134,-3.9134,0,0,0,0,0,0,0,0,0,0,0,0,0,-3.9361,-3.9361,-3.9343,-3.9342,-3.9342,-3.9291,-3.929,-3.929,-3.9193,-3.9191,-3.9188,-3.9186,-3.9134,-3.9134,-3.9134,0,0,0,0,0,0,0,0,0,0,0,0,0,-3.9336,-3.9361,-3.9343,-3.9288,-3.9282,-3.9291,-3.929,-3.9289,-3.9194,-3.9191,-3.9188,-3.9185,-3.9133,-3.9134,-3.9134,-3.9194,0,0,-3.9136,-3.9136,0,0,0,0,0,0,0,0,-3.9337,-3.9335,-3.9296,-3.9291,-3.9285,-3.9245,-3.9277,-3.9257,-3.9194,-3.9227,-3.9187,-3.9184,-3.9173,-3.917,-3.9167,-3.9191,-3.9189,-3.9136,-3.9136,-3.9136,-3.9137,0,0,0,0,0,0,0,-3.9339,-3.9337,-3.9322,-3.9296,-3.9289,-3.9266,-3.9259,-3.9273,-3.9217,-3.9224,-3.9217,-3.9212,-3.917,-3.9166,-3.9165,-3.9188,-3.9136,-3.9136,-3.9137,-3.9137,-3.9259,-3.9262,0,0,0,0,0,0,-3.9349,-3.9339,-3.9324,-3.9321,-3.9305,-3.9268,-3.926,-3.9261,-3.9216,-3.9207,-3.9215,-3.9208,-3.9167,-3.9164,-3.9162,-3.9228,-3.9136,-3.9137,-3.9137,-3.9256,-3.926,-3.9263,0,0,0,0,0,0,-3.935,-3.9348,-3.9326,-3.9328,-3.9323,-3.927,-3.9272,-3.9262,-3.9258,-3.9209,-3.9198,-3.9221,-3.9165,-3.9162,-3.9187,-3.9225,-3.9137,-3.9137,-3.9253,-3.9258,-3.9262,-3.936,0,0,0,0,0,0,-3.935,-3.9349,-3.937,-3.9329,-3.9324,-3.9351,-3.9275,-3.9263,-3.9259,-3.925,-3.9212,-3.9204,-3.9162,-3.9187,-3.9187,-3.9224,-3.9138,-3.9249,-3.9255,-3.926,-3.9353,-3.9368,-3.938,0,0,0,0,0,-3.9351,-3.94,-3.9372,-3.9371,-3.9349,-3.9353,-3.935,-3.9301,-3.9263,-3.9284,-3.9253,-3.9205,-3.9222,-3.919,-3.919,-3.9227,-3.9246,-3.9253,-3.926,-3.9347,-3.9365,-3.938,0,0,0,0,0,0,-3.9446,-3.9393,-3.9362,-3.9398,-3.9381,-3.9337,-3.9362,-3.9321,-3.9314,-3.9306,-3.9246,-3.9239,-3.9272,-3.9252,-3.9218,-3.9283,-3.9227,-3.9234,-3.9293,-3.9309,-3.9322,-3.9325,-3.9138,0,0,0,0,0,-3.9472,-3.948,-3.9433,-3.947,-3.9463,-3.9415,-3.9415,-3.9379,-3.9359,-3.9351,-3.9321,-3.9304,-3.9305,-3.9307,-3.9305,-3.9352,-3.9342,-3.9378,-3.9391,-3.9402,-3.9408,-3.9431,-3.9446,-3.9285,-3.9285,-3.9285,0,0,-3.9524,-3.9496,-3.9504,-3.9489,-3.9471,-3.9481,-3.9409,-3.9422,-3.9428,-3.9353,-3.9374,-3.9353,-3.9329,-3.9365,-3.938,-3.935,-3.9451,-3.9411,-3.942,-3.9419,-3.944,-3.9455,-3.9469,-3.929,-3.9289,-3.9288,0,0,-3.9623,-3.9603,-3.9631,-3.9616,-3.9591,-3.9559,-3.9566,-3.9529,-3.9512,-3.9533,-3.9476,-3.9484,-3.9488,-3.9473,-3.9466,-3.9564,-3.952,-3.9566,-3.9633,-3.9657,-3.967,-3.9681,-3.9715,-3.9728,-3.9573,-3.9573,-3.9573,0,-3.969,-3.9702,-3.9651,-3.9668,-3.9663,-3.9597,-3.9625,-3.9613,-3.9589,-3.9587,-3.9555,-3.9559,-3.9539,-3.957,-3.9595,-3.9592,-3.9598,-3.9568,-3.9672,-3.9683,-3.9692,-3.9724,-3.9737,-3.9578,-3.9578,-3.9577,-3.9577,0,-3.9786,-3.9795,-3.9822,-3.98,-3.9799,-3.9822,-3.9775,-3.978,-3.9746,-3.9718,-3.9741,-3.9715,-3.9707,-3.9713,-3.9679,-3.9741,-3.9723,-3.9683,-3.9624,-3.9714,-3.9742,-3.9754,-3.9586,-3.9584,-3.9583,-3.9581,0,0,-3.9939,-3.9892,-3.9902,-3.9892,-3.9861,-3.9867,-3.9889,-3.9881,-3.9886,-3.9874,-3.9889,-3.9896,-3.9859,-3.9851,-3.9816,-3.9838,-3.9916,-3.9794,-3.9793,-3.9816,-3.9981,-4.001,-4.0025,-3.9888,-3.989,-3.9892,-3.9983,0,-4.0029,-4.006,-4.0017,-4.0059,-4.0067,-4.0006,-4.0025,-4.0009,-3.9984,-3.9988,-3.9961,-3.9966,-3.9917,-3.9913,-3.9931,-3.9903,-3.9948,-3.9896,-3.9901,-3.9902,-3.9906,-4.004,-4.0069,-4.0156,-3.9994,-3.9996,-3.9997,0,-4.0137,-4.013,-4.0172,-4.014,-4.0142,-4.0159,-4.015,-4.0155,-4.0136,-4.0117,-4.0111,-4.007,-4.0089,-4.0036,-4.0061,-4.0027,-4.0027,-4.0014,-4.0016,-4.0012,-3.9953,-4.0037,-4.0182,-4.0195,-4.0014,-4.0013,-4.0012,0,-4.0242,-4.0243,-4.0269,-4.0263,-4.0226,-4.024,-4.0226,-4.0204,-4.0203,-4.0196,-4.0195,-4.0191,-4.0188,-4.0186,-4.0145,-4.011,-4.0176,-4.0119,-4.0159,-4.0161,-4.0173,-4.0172,-4.0318,-4.0178,-4.0178,-4.0178,-4.0178,0,-4.0345,-4.0373,-4.0316,-4.0331,-4.0361,-4.0313,-4.0344,-4.0324,-4.0306,-4.0317,-4.0266,-4.0277,-4.0224,-4.0231,-4.02,-4.0226,-4.0225,-4.021,-4.0201,-4.0213,-4.0214,-4.021,-4.0201,-4.0181,-4.0181,-4.018,-4.0179,0,-4.0466,-4.0428,-4.0452,-4.0417,-4.0409,-4.0433,-4.0403,-4.0416,-4.039,-4.0405,-4.0405,-4.0364,-4.0369,-4.033,-4.0327,-4.0307,-4.0346,-4.0328,-4.0352,-4.0345,-4.0388,-4.0383,-4.0533,-4.055,-4.0403,-4.0404,-4.0405,0,-4.0532,-4.0552,-4.052,-4.0524,-4.0512,-4.0519,-4.0519,-4.0473,-4.0475,-4.0457,-4.0472,-4.0474,-4.0471,-4.0483,-4.0453,-4.0451,-4.0431,-4.0484,-4.043,-4.0442,-4.0429,-4.0428,-4.0429,-4.0494,-4.0496,-4.0497,-4.0498,0,-4.0654,-4.0636,-4.0636,-4.0631,-4.0632,-4.0626,-4.0617,-4.0623,-4.0574,-4.0579,-4.0584,-4.0583,-4.0581,-4.0583,-4.0576,-4.0562,-4.0522,-4.0516,-4.0525,-4.0536,-4.0548,-4.054,-4.038,-4.0512,-4.0511,-4.051,-4.0509,-4.0508,-4.0748,-4.0763,-4.0743,-4.0746,-4.0735,-4.0728,-4.0739,-4.0715,-4.0719,-4.0713,-4.0688,-4.0697,-4.068,-4.0667,-4.0657,-4.0665,-4.0639,-4.0652,-4.0655,-4.0659,-4.0665,-4.055,-4.0664,-4.0663,-4.0663,-4.0662,-4.0662,0,-4.0865,-4.085,-4.0854,-4.0843,-4.0846,-4.0811,-4.0799,-4.0804,-4.0813,-4.0801,-4.0801,-4.0807,-4.081,-4.0781,-4.078,-4.0792,-4.0774,-4.0793,-4.079,-4.0787,-4.0689,-4.068,-4.0807,-4.0807,-4.0807,-4.0807,-4.0807,-4.0807,-4.0926,-4.095,-4.093,-4.0949,-4.0934,-4.0942,-4.0939,-4.0933,-4.0923,-4.0932,-4.0934,-4.0916,-4.0898,-4.0896,-4.0897,-4.0888,-4.0889,-4.0914,-4.09,-4.0808,-4.0794,-4.078,-4.0772,-4.0916,-4.0916,-4.0997,-4.0998,-4.0998]},{"header":{"parameterUnit":"m.s-1","parameterCategory":1,"la1":30.2991,"la2":30.254,"lo1":-89.0895,"lo2":-89.0444,"dy":0.0017,"dx":0.0017,"nx":28,"ny":28,"refTime":"2024-07-08T09:00:00:Z","depth":0,"parameterNumber":3,"parameterNumberName":"V-component_of_WINDS"},"data":[0,0,0,0,0,0,0,0,0,0,0,0,0,0,0,0,0,0,0,0,0,0,0,0,0,0,0,0,0,0,0,0,0,0,0,0,0,0,0,0,0,0,0,0,0,0,0,0,0,0,0,0,0,0,0,0,0,0,4.3946,4.3946,0,4.3965,4.3965,4.3965,4.3981,4.3981,4.3981,4.3981,4.3998,4.3999,4.3999,0,0,0,0,0,0,0,0,0,0,0,0,0,4.3923,4.3924,4.3946,4.3946,4.3946,4.3965,4.3965,4.3965,4.3981,4.3981,4.3981,4.3981,4.3998,4.3999,4.3999,0,0,0,0,0,0,0,0,0,0,0,0,0,4.3937,4.3924,4.3946,4.3956,4.3957,4.3965,4.3965,4.3965,4.3981,4.3981,4.3981,4.3981,4.3998,4.3999,4.3999,4.3997,0,0,4.4,4.4001,0,0,0,0,0,0,0,0,4.3936,4.3937,4.3955,4.3956,4.3957,4.3971,4.3963,4.3976,4.3981,4.3972,4.3981,4.3982,4.3989,4.399,4.3993,4.3997,4.3998,4.4,4.4001,4.4001,4.4001,0,0,0,0,0,0,0,4.3935,4.3937,4.3953,4.3955,4.3956,4.396,4.3962,4.3966,4.3979,4.3973,4.3974,4.3976,4.399,4.3992,4.3993,4.3998,4.4,4.4001,4.4001,4.4001,4.4004,4.4004,0,0,0,0,0,0,4.3932,4.3936,4.3953,4.3954,4.3947,4.396,4.3963,4.3966,4.3979,4.3981,4.3976,4.3977,4.3992,4.3993,4.3994,4.3994,4.4001,4.4001,4.4002,4.4005,4.4004,4.4004,0,0,0,0,0,0,4.3932,4.3934,4.3952,4.3945,4.3948,4.396,4.3964,4.3966,4.3969,4.3981,4.3983,4.3976,4.3992,4.3994,4.3997,4.3994,4.4002,4.4002,4.4005,4.4005,4.4004,4.3992,0,0,0,0,0,0,4.3931,4.3934,4.3933,4.3945,4.3948,4.3954,4.3964,4.3966,4.397,4.3971,4.3982,4.3984,4.3992,4.3996,4.3997,4.3995,4.4002,4.4005,4.4005,4.4004,4.3992,4.3991,4.399,0,0,0,0,0,4.393,4.3927,4.3932,4.3934,4.3947,4.3954,4.3955,4.3965,4.397,4.3969,4.3977,4.3984,4.3995,4.3996,4.3998,4.3996,4.4005,4.4005,4.4004,4.3993,4.3991,4.399,0,0,0,0,0,0,4.3913,4.3929,4.3935,4.3936,4.3943,4.3956,4.3956,4.3963,4.3969,4.397,4.3981,4.3984,4.3986,4.3991,4.3992,4.3995,4.4001,4.4001,4.3992,4.399,4.3989,4.3988,4.4003,0,0,0,0,0,4.3909,4.3914,4.3927,4.3927,4.3931,4.3943,4.3946,4.3953,4.3961,4.3964,4.3972,4.3979,4.3985,4.3988,4.3993,4.3993,4.3997,4.3993,4.3992,4.3991,4.399,4.3993,4.3992,4.4003,4.4003,4.4003,0,0,4.3901,4.3911,4.3913,4.3924,4.393,4.3935,4.3945,4.3949,4.3952,4.3964,4.3968,4.3975,4.3984,4.3986,4.3987,4.3991,4.3989,4.399,4.3989,4.399,4.3992,4.3991,4.3991,4.4003,4.4003,4.4003,0,0,4.389,4.3897,4.3898,4.3906,4.3916,4.3925,4.3925,4.3938,4.3943,4.3947,4.3957,4.3962,4.397,4.3977,4.3981,4.3975,4.3982,4.3976,4.397,4.3972,4.3971,4.397,4.3969,4.3969,4.3976,4.3976,4.3976,0,4.3879,4.3886,4.3898,4.3902,4.3907,4.392,4.3922,4.3928,4.3939,4.3943,4.3946,4.3959,4.3966,4.3971,4.397,4.3972,4.3974,4.3975,4.397,4.397,4.3969,4.3968,4.3968,4.3975,4.3975,4.3975,4.3975,0,4.3872,4.3877,4.3877,4.389,4.3895,4.3897,4.391,4.3914,4.3922,4.393,4.3935,4.3944,4.3953,4.3954,4.3961,4.3961,4.3963,4.3968,4.3974,4.3967,4.3967,4.3967,4.3974,4.3975,4.3975,4.3975,0,0,4.3848,4.3869,4.3869,4.3876,4.389,4.3894,4.3898,4.3908,4.3911,4.3919,4.3923,4.3932,4.3938,4.3943,4.395,4.3952,4.3949,4.3958,4.3958,4.3957,4.3951,4.3947,4.3947,4.3954,4.3954,4.3954,4.3951,0,4.3839,4.3848,4.386,4.3864,4.387,4.3884,4.3887,4.3897,4.3905,4.3911,4.392,4.3926,4.3933,4.3937,4.3939,4.3949,4.3948,4.3949,4.3958,4.3958,4.3956,4.3946,4.3942,4.3938,4.3951,4.3951,4.395,0,4.383,4.3839,4.3844,4.386,4.3863,4.3866,4.3877,4.3882,4.3894,4.39,4.3907,4.3916,4.3922,4.3927,4.3936,4.3937,4.3941,4.3947,4.3947,4.3948,4.3954,4.3948,4.3937,4.3937,4.395,4.395,4.395,0,4.3813,4.3827,4.3832,4.3837,4.3855,4.3858,4.3865,4.3877,4.3883,4.3892,4.3896,4.3906,4.3911,4.3918,4.393,4.3933,4.3938,4.3944,4.3944,4.3944,4.3944,4.3944,4.3934,4.3946,4.3946,4.3946,4.3946,0,4.3802,4.3805,4.3825,4.3829,4.3833,4.3847,4.3851,4.386,4.3871,4.3877,4.3889,4.3894,4.3909,4.3916,4.3925,4.3932,4.3934,4.3939,4.3942,4.3939,4.3938,4.3942,4.3942,4.3946,4.3946,4.3946,4.3946,0,4.3784,4.3797,4.3805,4.3822,4.3827,4.3829,4.3844,4.3848,4.3858,4.3866,4.3868,4.3884,4.3893,4.3906,4.3919,4.3925,4.3931,4.3934,4.3927,4.3929,4.3928,4.3928,4.3921,4.3921,4.3932,4.3932,4.3932,0,4.3776,4.3779,4.3797,4.3802,4.381,4.3818,4.3824,4.3839,4.3845,4.386,4.3863,4.3873,4.3883,4.3897,4.3909,4.392,4.3924,4.3921,4.3926,4.3923,4.3925,4.3925,4.3926,4.392,4.392,4.3919,4.3919,0,4.3761,4.3768,4.3777,4.3789,4.3797,4.3807,4.3817,4.3821,4.3838,4.3844,4.3855,4.3862,4.3877,4.3887,4.39,4.3908,4.3917,4.3918,4.3919,4.3915,4.3911,4.3915,4.3925,4.3918,4.3918,4.3918,4.3918,4.3918,4.3748,4.3752,4.3766,4.3776,4.3786,4.3796,4.3802,4.3814,4.3823,4.3836,4.3844,4.3855,4.3868,4.3886,4.3894,4.3903,4.3906,4.3907,4.3907,4.3907,4.3907,4.391,4.3905,4.3905,4.3905,4.3905,4.3905,0,4.3734,4.3745,4.3754,4.3769,4.3778,4.3787,4.3799,4.3806,4.3815,4.3827,4.3837,4.385,4.3861,4.3875,4.3887,4.3892,4.3896,4.3894,4.3894,4.3896,4.3902,4.3901,4.3891,4.3891,4.3891,4.3891,4.3891,4.3891,4.3728,4.3736,4.3745,4.3759,4.3769,4.378,4.3787,4.3797,4.3807,4.3821,4.3831,4.384,4.3854,4.3868,4.3879,4.3883,4.3887,4.3884,4.3889,4.3894,4.3896,4.3897,4.3896,4.3885,4.3885,4.3883,4.3883,4.3883]}]]